Terminal Aerodrome Forecast
Issued by NWS

Home | Current Version | Previous Version | Text Only | Print | Product List | Glossary On
Versions: 1 2 3 4 5 6 7 8 9 10 11 12 13 14 15 16 17 18 19 20 21 22 23 24 25 26 27 28 29 30 31 32 33 34 35 36 37 38 39 40 41 42 43 44 45 46 47 48 49 50
000
FTUS44 KHGX 060638 AAA
TAFIAH
TAF AMD
KIAH 060638Z 0607/0712 13013G19KT P6SM VCTS SCT025 BKN040CB
      TEMPO 0607/0611 5SM TSRA BR BKN015CB
     FM061900 14015G25KT P6SM VCTS SCT025 BKN040CB
     FM070200 14009KT P6SM SCT015
     FM070900 14007KT P6SM BKN015=

USA.gov is the U.S. government's official web portal to all federal, state and local government web resources and services.